Wetbulb
66.72 66.30 66.34 64.91 63.60 63.40 63.54 63.21 62.60 61.34 61.61 61.75 61.73 62.60 63.06 62.86 61.95 61.47 61.19 60.16 59.21 57.43
65.24 65.19 64.05 63.70 63.98 63.08 61.66 58.99 58.95 59.08 58.94 58.83 59.06 60.05 60.48 59.91 59.75 59.75 60.29 60.19 59.70 57.25
62.44 62.22 61.85 61.51 60.56 60.17 59.73 59.42 59.55 58.66 58.43 58.56 59.12 59.27 59.30 59.24 58.69 58.62 58.33 57.62 56.15 55.01
58.49 58.71 59.16 58.88 59.06 59.60 59.44 59.06 59.52 59.17 58.81 58.14 57.50 56.81 55.29 55.06 56.24 54.87 55.51 54.73 53.90 53.40
58.60 58.92 58.72 58.75 58.59 58.81 58.47 58.11 57.94 57.77 56.97 56.51 55.95 55.86 54.23 53.02 51.97 52.20 52.41 52.36 52.15 52.43
58.17 58.34 58.24 58.09 57.89 57.32 57.29 57.32 57.06 56.15 55.34 55.35 55.00 53.94 53.05 51.61 51.07 50.62 51.39 51.54 51.58 52.91
57.25 57.25 56.95 56.68 56.64 56.60 56.57 56.05 55.24 54.64 53.91 53.14 52.93 52.51 51.85 50.91 50.41 50.32 49.22 49.12 48.65 47.23
56.32 55.67 55.00 54.49 55.04 55.52 55.05 54.35 53.44 52.79 52.51 52.87 52.14 51.30 51.58 50.08 49.44 48.58 47.43 47.34 48.16 49.68
53.74 53.29 53.14 52.77 53.40 53.34 53.27 53.18 52.77 52.05 51.25 50.36 49.81 43.91 41.84 44.22 48.53 47.55 46.52 44.93 44.71 44.95
49.03 49.12 49.84 50.87 51.04 50.81 50.89 51.32 50.95 50.81 51.18 50.90 50.94 42.60 41.09 39.91 44.56 44.44 43.75 43.65 41.55 40.80
46.36 45.82 45.82 45.95 46.80 48.13 49.62 49.55 49.45 49.38 49.93 49.90 49.06 41.65 40.41 38.76 44.93 41.97 40.18 37.46 38.37 40.06
43.97 44.59 45.34 45.64 46.42 46.43 46.20 47.06 47.63 47.30 47.23 46.76 39.82 40.54 39.68 39.14 41.27 36.55 35.28 34.74 36.19 36.55
44.78 44.49 41.99 44.42 44.88 45.00 44.65 44.75 45.69 44.91 45.55 40.08 42.54 39.39 39.11 39.40 36.73 34.74 35.28 35.47 36.01 36.69
42.97 43.39 43.23 42.84 43.45 43.72 43.80 43.93 43.41 41.15 40.36 39.45 38.18 38.35 38.73 38.20 39.77 36.73 35.65 35.10 34.74 35.10
MSLP
1009.67 1010.17 1010.54 1011.32 1012.20 1012.88 1013.08 1013.27 1013.87 1014.43 1014.79 1014.95 1015.03 1015.24 1015.31 1015.49 1015.82 1016.03 1016.20 1016.35 1016.62 1016.95
1010.01 1010.32 1010.92 1011.55 1012.16 1012.72 1013.38 1013.99 1014.19 1014.52 1014.89 1015.28 1015.43 1015.38 1015.58 1015.51 1015.52 1015.57 1015.55 1015.78 1015.97 1016.10
1010.36 1010.84 1011.44 1012.09 1012.51 1013.05 1013.56 1013.85 1014.19 1014.45 1014.78 1015.11 1015.27 1015.29 1015.30 1015.32 1015.53 1015.55 1015.76 1015.89 1016.05 1016.47
1011.10 1011.54 1011.73 1012.12 1012.54 1012.93 1013.57 1013.96 1014.21 1014.39 1014.69 1014.89 1015.16 1015.35 1015.29 1015.36 1015.27 1015.34 1015.58 1015.66 1015.92 1016.27
1011.15 1011.32 1011.64 1012.11 1012.65 1013.07 1013.16 1013.81 1014.18 1014.55 1014.64 1014.82 1014.92 1015.19 1015.53 1015.44 1015.41 1015.39 1015.03 1015.55 1015.12 1015.36
1011.24 1011.50 1011.83 1012.21 1012.65 1012.98 1013.48 1013.76 1014.14 1014.41 1014.66 1014.92 1015.17 1015.25 1015.40 1015.54 1015.65 1015.42 1015.33 1015.07 1015.08 1014.76
1011.49 1011.82 1012.31 1012.73 1013.16 1013.52 1013.82 1014.02 1014.32 1014.65 1014.96 1015.25 1015.31 1015.33 1015.24 1015.18 1015.08 1015.30 1015.27 1015.52 1015.52 1015.15
1011.96 1012.45 1012.71 1012.92 1013.24 1014.01 1014.41 1014.51 1014.72 1014.94 1014.98 1015.14 1015.24 1015.32 1015.39 1015.48 1015.20 1014.96 1015.05 1014.80 1014.80 1014.95
1012.26 1012.74 1013.14 1013.34 1013.34 1013.57 1014.08 1014.50 1014.64 1014.69 1014.71 1014.79 1014.93 1015.06 1015.31 1015.33 1015.30 1015.19 1015.21 1014.86 1014.80 1014.78
1012.65 1012.99 1013.14 1013.10 1012.91 1013.16 1013.53 1013.97 1014.22 1014.35 1014.60 1014.54 1014.56 1014.82 1014.89 1015.08 1015.12 1014.94 1014.77 1014.64 1014.65 1014.82
1012.98 1013.07 1013.15 1013.16 1013.16 1013.39 1013.53 1013.62 1013.81 1013.89 1013.91 1014.04 1014.05 1014.32 1014.54 1014.71 1014.72 1014.48 1014.54 1014.37 1014.53 1014.69
1012.86 1012.94 1013.02 1012.98 1013.26 1013.36 1013.45 1013.30 1013.19 1013.49 1013.72 1013.70 1013.47 1013.55 1013.96 1014.11 1014.07 1013.99 1013.94 1014.20 1014.45 1014.57
1012.95 1013.01 1013.24 1013.33 1013.45 1013.46 1013.45 1013.02 1013.17 1013.14 1013.19 1013.02 1012.99 1013.29 1013.52 1013.65 1013.78 1013.59 1013.45 1013.71 1014.03 1014.35
1013.03 1013.15 1013.32 1013.39 1013.34 1012.91 1012.78 1012.52 1012.70 1012.56 1012.60 1012.73 1012.87 1012.48 1012.46 1012.72 1013.04 1013.13 1013.19 1013.29 1013.29 1013.48
Wind_Speed
8 5 5 7 6 4 4 4 5 3 1 2 2 4 5 4 4 5 6 9 7 5
8 9 8 9 7 6 6 4 4 3 2 2 3 4 5 4 6 7 8 9 10 7
10 10 9 7 8 7 6 6 5 4 2 4 5 6 6 6 6 7 6 5 6 6
9 9 8 8 7 6 5 4 2 1 3 4 5 5 6 7 7 7 7 7 7 8
9 9 8 7 7 5 5 4 3 2 4 5 6 6 7 7 6 8 8 9 9 9
8 7 7 7 6 5 4 2 1 3 5 6 7 7 8 9 8 9 10 9 10 10
7 6 5 5 3 2 2 2 3 4 6 7 8 9 9 9 9 10 8 7 7 7
6 5 5 4 2 2 4 4 5 6 7 8 8 7 9 9 10 10 10 8 9 9
5 4 3 3 3 3 5 6 6 8 9 9 7 9 11 11 8 10 9 7 7 6
4 3 2 1 1 3 5 6 7 8 10 10 10 7 11 13 9 7 8 8 6 6
4 2 1 1 2 4 5 6 6 8 9 10 8 8 10 11 11 7 6 5 4 5
3 4 4 4 4 6 7 8 8 4 8 10 5 7 10 9 6 6 7 6 7 8
1 4 3 5 6 6 6 8 6 8 7 8 9 10 13 9 4 6 6 6 9 16
4 5 5 6 7 7 7 8 6 9 9 9 9 11 11 12 7 7 7 7 7 7
Wind_Direction
134 148 125 146 141 155 150 113 115 136 152 209 257 254 236 238 249 240 235 226 221 217
119 122 118 112 119 119 103 90 111 131 157 213 240 240 251 232 231 221 227 228 223 206
110 109 111 110 105 105 110 126 140 142 175 226 241 250 246 248 247 247 248 245 220 211
95 92 98 104 110 115 122 116 116 139 254 256 260 253 238 238 239 229 240 222 216 225
121 123 118 108 100 94 92 75 26 312 282 268 255 258 260 256 240 238 226 226 210 209
114 107 101 101 100 99 99 132 232 283 277 273 272 258 250 248 248 235 237 223 220 210
111 108 103 93 92 123 191 229 243 253 264 265 264 257 251 243 239 243 234 234 226 198
124 118 122 132 130 290 302 297 282 275 264 269 268 267 265 260 255 243 233 224 223 231
126 132 148 180 188 208 243 247 261 263 263 257 246 237 238 250 254 245 242 231 228 234
120 151 166 196 305 266 265 272 269 268 262 265 269 243 233 235 247 243 235 236 228 226
131 137 152 211 267 295 290 277 272 269 272 273 278 227 238 232 250 249 246 229 237 240
202 240 283 298 312 292 284 280 282 247 259 269 260 241 243 236 236 231 239 225 225 218
278 267 263 273 278 277 272 272 271 274 263 267 270 236 230 222 223 236 242 238 233 226
248 259 265 255 251 265 280 288 286 283 283 273 250 266 240 216 216 221 229 226 224 216